[[{"header":{"parameterUnit":"m.s-1","parameterCategory":1,"la1":30.2991,"la2":30.254,"lo1":-89.0895,"lo2":-89.0444,"dy":0.0017,"dx":0.0017,"nx":28,"ny":28,"refTime":"2025-03-11T09:00:00:Z","depth":0,"parameterNumber":2,"parameterNumberName":"U-component_of_WINDS"},"data":[0,0,0,0,0,0,0,0,0,0,0,0,0,0,0,0,0,0,0,0,0,0,0,0,0,0,0,0,0,0,0,0,0,0,0,0,0,0,0,0,0,0,0,0,0,0,0,0,0,0,0,0,0,0,0,0,0,0,1.6547,1.6547,0,1.6557,1.6557,1.6557,1.6515,1.6513,1.6512,1.6511,1.652,1.6522,1.6523,0,0,0,0,0,0,0,0,0,0,0,0,0,1.6491,1.6492,1.6547,1.6547,1.6547,1.6556,1.6557,1.6557,1.6515,1.6513,1.6512,1.651,1.652,1.6522,1.6523,0,0,0,0,0,0,0,0,0,0,0,0,0,1.651,1.6493,1.6547,1.6527,1.6526,1.6556,1.6557,1.6557,1.6515,1.6513,1.6511,1.651,1.6519,1.6522,1.6524,1.6573,0,0,1.653,1.6531,0,0,0,0,0,0,0,0,1.6509,1.6512,1.653,1.6529,1.6527,1.6532,1.654,1.6562,1.6516,1.6519,1.6511,1.6509,1.6526,1.6527,1.6533,1.6574,1.6574,1.653,1.6531,1.6532,1.6533,0,0,0,0,0,0,0,1.6507,1.6511,1.6551,1.653,1.6528,1.6518,1.6518,1.6544,1.6533,1.6519,1.6516,1.6517,1.6525,1.6531,1.6533,1.6574,1.653,1.6532,1.6533,1.6534,1.6656,1.6658,0,0,0,0,0,0,1.6509,1.651,1.655,1.6551,1.6513,1.652,1.6521,1.6533,1.6532,1.6531,1.6519,1.6515,1.6529,1.6531,1.6533,1.6592,1.6532,1.6534,1.6536,1.6654,1.6657,1.6659,0,0,0,0,0,0,1.6508,1.6513,1.655,1.653,1.6534,1.6523,1.6537,1.6534,1.654,1.6533,1.653,1.6528,1.6527,1.653,1.6564,1.6591,1.6535,1.6537,1.6652,1.6655,1.6658,1.6709,0,0,0,0,0,0,1.6506,1.6513,1.6532,1.6531,1.6535,1.6581,1.6538,1.6535,1.6544,1.654,1.654,1.6539,1.6526,1.6561,1.6566,1.6593,1.6539,1.6649,1.6653,1.6657,1.6705,1.6713,1.6721,0,0,0,0,0,1.6505,1.6546,1.6533,1.6538,1.6559,1.6582,1.6585,1.657,1.6546,1.6565,1.656,1.6539,1.6588,1.6565,1.657,1.6598,1.6648,1.6652,1.6657,1.6701,1.6712,1.6721,0,0,0,0,0,0,1.6551,1.6545,1.6531,1.6573,1.6579,1.6575,1.6599,1.6581,1.6593,1.6588,1.6569,1.6569,1.6606,1.6605,1.658,1.6647,1.6614,1.6619,1.6646,1.6656,1.6663,1.6663,1.6541,0,0,0,0,0,1.6566,1.6586,1.658,1.6617,1.6621,1.661,1.6619,1.6607,1.6612,1.6614,1.6611,1.6616,1.6633,1.6644,1.6659,1.6704,1.6704,1.6727,1.6734,1.6741,1.6746,1.677,1.678,1.6674,1.6673,1.6673,0,0,1.6597,1.6597,1.661,1.6627,1.6629,1.665,1.6612,1.6635,1.6651,1.6617,1.6649,1.6647,1.6651,1.6691,1.6709,1.6692,1.6776,1.6747,1.6752,1.6754,1.6776,1.6786,1.6795,1.6677,1.6676,1.6676,0,0,1.6665,1.6667,1.6698,1.6702,1.6706,1.6698,1.6706,1.6705,1.6703,1.6734,1.6709,1.6727,1.6756,1.676,1.6766,1.6835,1.6815,1.684,1.6882,1.6906,1.6914,1.6921,1.6946,1.6955,1.6845,1.6845,1.6846,0,1.6703,1.6734,1.6717,1.6742,1.675,1.672,1.6752,1.6756,1.6766,1.6772,1.6753,1.6788,1.6789,1.6829,1.6846,1.6852,1.686,1.684,1.6914,1.6921,1.6928,1.6951,1.6961,1.6848,1.6848,1.6848,1.6848,0,1.6781,1.6803,1.6828,1.6837,1.6848,1.6876,1.6863,1.6876,1.6862,1.6856,1.6888,1.6888,1.6903,1.6911,1.6898,1.695,1.6939,1.6918,1.6884,1.6942,1.6963,1.6972,1.6853,1.6852,1.6851,1.685,0,0,1.6879,1.6878,1.6888,1.6892,1.6894,1.6911,1.6938,1.6951,1.6963,1.697,1.6992,1.7017,1.6997,1.7004,1.6991,1.7011,1.7066,1.6987,1.6987,1.7002,1.7123,1.714,1.715,1.7053,1.7055,1.7056,1.7123,0,1.6946,1.6992,1.6977,1.7024,1.7044,1.7016,1.7039,1.7043,1.7038,1.7054,1.7048,1.7066,1.7038,1.7042,1.7061,1.7056,1.709,1.705,1.7074,1.7075,1.7074,1.7162,1.7179,1.7243,1.7131,1.7133,1.7134,0,1.7031,1.7041,1.709,1.7089,1.7097,1.7118,1.7129,1.7145,1.7148,1.7143,1.7151,1.7133,1.7159,1.7125,1.7161,1.7134,1.7143,1.7141,1.7143,1.7145,1.7108,1.7167,1.7262,1.7272,1.7147,1.7146,1.7145,0,1.7098,1.7124,1.7157,1.7161,1.716,1.7176,1.7176,1.7178,1.7187,1.7197,1.7203,1.7216,1.7223,1.7233,1.7219,1.7196,1.7257,1.7222,1.7253,1.7254,1.7268,1.7268,1.7367,1.7273,1.7273,1.7273,1.7272,0,1.7174,1.7206,1.7187,1.7207,1.7241,1.7223,1.7257,1.7254,1.7256,1.7275,1.7251,1.7269,1.725,1.7266,1.7256,1.7287,1.729,1.7286,1.7283,1.7289,1.729,1.7295,1.729,1.7275,1.7274,1.7274,1.7274,0,1.7256,1.7244,1.7278,1.7274,1.7274,1.73,1.7296,1.7315,1.7307,1.7332,1.7336,1.7325,1.7343,1.7331,1.7349,1.7341,1.7383,1.7373,1.7382,1.7379,1.7412,1.7409,1.7519,1.7532,1.7429,1.743,1.743,0,1.7306,1.7329,1.7328,1.7339,1.7341,1.7359,1.7368,1.7351,1.7361,1.7367,1.7385,1.7401,1.7413,1.7443,1.7436,1.745,1.7441,1.7478,1.7443,1.7447,1.7442,1.7441,1.7443,1.7486,1.7487,1.7488,1.7488,0,1.7396,1.7389,1.7403,1.7416,1.7428,1.7436,1.7443,1.7453,1.7436,1.7449,1.7467,1.7476,1.7494,1.751,1.7521,1.7521,1.7503,1.75,1.7508,1.7514,1.7518,1.7517,1.7402,1.7497,1.7496,1.7496,1.7495,1.7495,1.7464,1.7483,1.7485,1.7502,1.7505,1.7512,1.7529,1.7524,1.7539,1.7552,1.7541,1.7562,1.7565,1.7578,1.758,1.7597,1.7581,1.7593,1.7596,1.76,1.7604,1.7515,1.7599,1.7598,1.7598,1.7598,1.7598,0,1.7553,1.7553,1.7569,1.7579,1.7592,1.7572,1.7578,1.7591,1.761,1.7614,1.7626,1.7647,1.7662,1.7656,1.767,1.7684,1.7676,1.7689,1.7688,1.7688,1.7617,1.7609,1.7695,1.7695,1.7695,1.7695,1.7695,1.7695,1.7602,1.7633,1.7627,1.7659,1.7659,1.768,1.7685,1.7691,1.7694,1.7719,1.7731,1.7727,1.7727,1.774,1.7754,1.7751,1.7758,1.7774,1.7769,1.7703,1.7693,1.7684,1.7676,1.7775,1.7775,1.7839,1.7839,1.784]},{"header":{"parameterUnit":"m.s-1","parameterCategory":1,"la1":30.2991,"la2":30.254,"lo1":-89.0895,"lo2":-89.0444,"dy":0.0017,"dx":0.0017,"nx":28,"ny":28,"refTime":"2025-03-11T09:00:00:Z","depth":0,"parameterNumber":3,"parameterNumberName":"V-component_of_WINDS"},"data":[0,0,0,0,0,0,0,0,0,0,0,0,0,0,0,0,0,0,0,0,0,0,0,0,0,0,0,0,0,0,0,0,0,0,0,0,0,0,0,0,0,0,0,0,0,0,0,0,0,0,0,0,0,0,0,0,0,0,-1.4307,-1.4308,0,-1.4381,-1.4382,-1.4383,-1.4391,-1.439,-1.439,-1.4389,-1.4464,-1.4467,-1.4469,0,0,0,0,0,0,0,0,0,0,0,0,0,-1.4173,-1.4175,-1.4307,-1.4308,-1.4309,-1.4381,-1.4382,-1.4383,-1.4391,-1.439,-1.4389,-1.4389,-1.4463,-1.4466,-1.447,0,0,0,0,0,0,0,0,0,0,0,0,0,-1.4238,-1.4176,-1.4307,-1.4322,-1.4324,-1.4381,-1.4382,-1.4384,-1.4391,-1.439,-1.4389,-1.4388,-1.4462,-1.4466,-1.447,-1.4517,0,0,-1.4482,-1.4484,0,0,0,0,0,0,0,0,-1.4234,-1.4242,-1.4319,-1.4321,-1.4323,-1.4376,-1.4362,-1.4428,-1.4392,-1.4366,-1.4389,-1.4388,-1.4436,-1.4442,-1.4458,-1.4521,-1.4524,-1.4483,-1.4485,-1.4487,-1.4488,0,0,0,0,0,0,0,-1.4229,-1.4239,-1.4337,-1.432,-1.4323,-1.4325,-1.4333,-1.4375,-1.4406,-1.4368,-1.4369,-1.4377,-1.4437,-1.4454,-1.446,-1.4525,-1.4483,-1.4486,-1.4489,-1.449,-1.4631,-1.4632,0,0,0,0,0,0,-1.4222,-1.4236,-1.4334,-1.4339,-1.4275,-1.4328,-1.4337,-1.436,-1.4406,-1.4412,-1.4378,-1.4378,-1.4448,-1.4455,-1.4463,-1.4521,-1.4487,-1.4491,-1.4493,-1.463,-1.4631,-1.4633,0,0,0,0,0,0,-1.4219,-1.4231,-1.4331,-1.4287,-1.43,-1.4332,-1.4358,-1.4362,-1.438,-1.4413,-1.4419,-1.4391,-1.4447,-1.4457,-1.4504,-1.4524,-1.4493,-1.4496,-1.4628,-1.463,-1.4632,-1.4638,0,0,0,0,0,0,-1.4215,-1.423,-1.4248,-1.4288,-1.4303,-1.4371,-1.4359,-1.4364,-1.4387,-1.4386,-1.4426,-1.4432,-1.4447,-1.4498,-1.4508,-1.4529,-1.4499,-1.4626,-1.4629,-1.4631,-1.4636,-1.464,-1.4643,0,0,0,0,0,-1.4211,-1.4247,-1.4249,-1.4261,-1.4326,-1.4372,-1.4381,-1.4398,-1.4388,-1.4407,-1.4429,-1.4431,-1.452,-1.4502,-1.4514,-1.4536,-1.4625,-1.4628,-1.4631,-1.4635,-1.4639,-1.4643,0,0,0,0,0,0,-1.4208,-1.4252,-1.4255,-1.4305,-1.4335,-1.4374,-1.4398,-1.4402,-1.4435,-1.4433,-1.4453,-1.4462,-1.4508,-1.4527,-1.4507,-1.4585,-1.4572,-1.4577,-1.457,-1.4575,-1.4579,-1.4573,-1.4503,0,0,0,0,0,-1.4214,-1.4248,-1.4284,-1.4325,-1.434,-1.4366,-1.4387,-1.4398,-1.4429,-1.4442,-1.4467,-1.4497,-1.4532,-1.4555,-1.4589,-1.4639,-1.4648,-1.466,-1.4664,-1.4666,-1.4671,-1.4699,-1.4705,-1.4642,-1.4642,-1.4642,0,0,-1.4225,-1.4253,-1.4274,-1.4325,-1.435,-1.4384,-1.4377,-1.4414,-1.444,-1.4447,-1.4493,-1.4513,-1.4548,-1.4597,-1.4619,-1.4614,-1.469,-1.467,-1.4672,-1.4675,-1.4702,-1.4708,-1.4713,-1.4644,-1.4644,-1.4643,0,0,-1.4264,-1.4289,-1.4325,-1.435,-1.4387,-1.4404,-1.4413,-1.4451,-1.4465,-1.4511,-1.4517,-1.4548,-1.4608,-1.4633,-1.4654,-1.4702,-1.4705,-1.4713,-1.4731,-1.4758,-1.4763,-1.4767,-1.4784,-1.479,-1.4717,-1.4717,-1.4717,0,-1.4273,-1.4326,-1.4343,-1.438,-1.4403,-1.4412,-1.4449,-1.4472,-1.4518,-1.4533,-1.4527,-1.4602,-1.4626,-1.4681,-1.4693,-1.4709,-1.472,-1.4708,-1.4761,-1.4765,-1.477,-1.4786,-1.4793,-1.4717,-1.4717,-1.4717,-1.4717,0,-1.4335,-1.4372,-1.4397,-1.4441,-1.4467,-1.4504,-1.4527,-1.4551,-1.4559,-1.4577,-1.4624,-1.4654,-1.4694,-1.4708,-1.4717,-1.4764,-1.476,-1.4757,-1.4744,-1.4776,-1.4792,-1.4798,-1.4718,-1.4718,-1.4718,-1.4718,0,0,-1.4374,-1.4428,-1.4437,-1.4458,-1.4499,-1.4528,-1.4565,-1.4605,-1.4624,-1.4656,-1.4688,-1.4738,-1.4736,-1.4759,-1.4771,-1.4794,-1.4831,-1.4788,-1.479,-1.4795,-1.4885,-1.4887,-1.4894,-1.4833,-1.4834,-1.4836,-1.4882,0,-1.4417,-1.4484,-1.4501,-1.4558,-1.4592,-1.4601,-1.4633,-1.4662,-1.468,-1.4712,-1.4732,-1.4767,-1.4761,-1.4775,-1.4799,-1.4821,-1.4849,-1.4818,-1.4863,-1.4864,-1.4853,-1.4902,-1.4904,-1.4946,-1.4888,-1.4889,-1.489,0,-1.4476,-1.4509,-1.4569,-1.4607,-1.4622,-1.465,-1.4688,-1.4718,-1.4751,-1.4763,-1.4789,-1.4798,-1.4837,-1.4823,-1.4877,-1.4856,-1.4875,-1.4889,-1.4891,-1.4895,-1.4879,-1.4908,-1.496,-1.4967,-1.49,-1.4899,-1.4898,0,-1.4498,-1.4558,-1.4601,-1.4618,-1.4663,-1.4683,-1.4703,-1.4735,-1.4758,-1.4791,-1.4806,-1.4843,-1.4863,-1.4892,-1.4911,-1.4899,-1.4963,-1.4951,-1.4974,-1.4973,-1.4987,-1.4986,-1.5043,-1.5,-1.5,-1.5,-1.4999,0,-1.4544,-1.458,-1.4612,-1.4639,-1.468,-1.4699,-1.4739,-1.4759,-1.4788,-1.4819,-1.4829,-1.4858,-1.4881,-1.4913,-1.4929,-1.4971,-1.498,-1.499,-1.4994,-1.4989,-1.4988,-1.5002,-1.5,-1.5001,-1.5001,-1.5001,-1.5,0,-1.4575,-1.4598,-1.4646,-1.4685,-1.4695,-1.4724,-1.4757,-1.4783,-1.4802,-1.4841,-1.4851,-1.488,-1.4918,-1.494,-1.4988,-1.4998,-1.5046,-1.5048,-1.5034,-1.5036,-1.5058,-1.5055,-1.5126,-1.5136,-1.5086,-1.5087,-1.5087,0,-1.4603,-1.4631,-1.4673,-1.4694,-1.4714,-1.4749,-1.4772,-1.4792,-1.4816,-1.4856,-1.4878,-1.4917,-1.4949,-1.501,-1.5035,-1.5072,-1.5075,-1.5097,-1.5081,-1.5075,-1.5075,-1.5073,-1.5076,-1.51,-1.51,-1.5101,-1.5101,0,-1.465,-1.4659,-1.4693,-1.473,-1.4758,-1.4788,-1.4818,-1.4835,-1.4861,-1.4887,-1.4926,-1.4951,-1.5,-1.5039,-1.5078,-1.5098,-1.5104,-1.5106,-1.5113,-1.5109,-1.51,-1.5105,-1.5042,-1.5104,-1.5104,-1.5104,-1.5104,-1.5103,-1.468,-1.4705,-1.4739,-1.4776,-1.48,-1.4828,-1.4855,-1.4877,-1.491,-1.4952,-1.4962,-1.5003,-1.5036,-1.5089,-1.511,-1.5143,-1.5139,-1.515,-1.5152,-1.5155,-1.5155,-1.5095,-1.515,-1.515,-1.515,-1.515,-1.515,0,-1.4727,-1.4749,-1.4783,-1.4825,-1.4854,-1.4857,-1.489,-1.4914,-1.4951,-1.4981,-1.5012,-1.5057,-1.5095,-1.5123,-1.5162,-1.5182,-1.5186,-1.5191,-1.519,-1.5195,-1.5157,-1.5146,-1.5188,-1.5188,-1.5188,-1.5188,-1.5188,-1.5188,-1.4755,-1.4798,-1.4812,-1.4868,-1.489,-1.493,-1.4949,-1.4975,-1.4999,-1.5049,-1.5081,-1.5099,-1.5128,-1.5169,-1.5204,-1.5211,-1.5224,-1.523,-1.5238,-1.5201,-1.5197,-1.5193,-1.5184,-1.5233,-1.5233,-1.5273,-1.5273,-1.5274]}]]